Weather History for KDHT - October, 2013

Change the Weather History Date:

Monday, October 7, 2013

  Actual Average Record
Temperature  
Mean Temperature 61 °F 59 °F  
Max Temperature 81 °F 74 °F 90 °F (1979)
Min Temperature 40 °F 44 °F 30 °F (1952)
Degree Days  
Heating Degree Days 4 7  
Month to date heating degree days 29 42  
Since 1 July heating degree days 43 105  
Cooling Degree Days 0 1  
Month to date cooling degree days 9 7  
Year to date cooling degree days 1572 1135  
Growing Degree Days 10 (Base 50)    
Moisture  
Dew Point 24 °F    
Average Humidity 39    
Maximum Humidity 70    
Minimum Humidity 8    
Precipitation  
Precipitation 0.00 in 0.05 in 0.85 in (2011)
Month to date precipitation 0.00 0.32  
Year to date precipitation 6.66 15.32  
Snow  
Snow 0.00 in 0.00 in T in (1976)
Month to date snowfall 0.0 0.0  
Since 1 July snowfall 0.0 0.0  
Since 1 September snowfall 0.0 0.0  
Snow Depth 0.00 in    
Sea Level Pressure  
Sea Level Pressure 30.09 in    
Wind  
Wind Speed 11 mph (SW)    
Max Wind Speed 24 mph    
Max Gust Speed 31 mph    
Visibility 10 miles    
Events      
T = Trace of Precipitation, MM = Missing Value Source: NWS Daily Summary

Daily Weather History Graph

Daily Weather History Graph

Search for Another Location

Airport or City:

Trip Planner

Search our weather history database for the weather conditions in past years. The results will help you decide how hot, cold, wet, or windy it might be!

Date:

Astronomy

Oct. 07, 2013 Rise Set
Actual Time 7:50 AM CDT 7:24 PM CDT
Civil Twilight 7:24 AM CDT 7:50 PM CDT
Nautical Twilight 6:55 AM CDT 8:20 PM CDT
Astronomical Twilight 6:25 AM CDT 8:49 PM CDT
Moon 10:36 AM CDT (10/7) 9:17 PM CDT (10/7)
Length of Visible Light 12h 25m
Length of Day
11h 34m
Waxing Crescent, 9% of the Moon is Illuminated
Oct 7
Waxing Crescent
Oct 11
First Quarter
Oct 18
Full
Oct 26
Last Quarter
Nov 3
New

Hourly Weather History & Observations

Time (CDT) Temp. Windchill Dew Point Humidity Pressure Visibility Wind Dir Wind Speed Gust Speed Precip Events Conditions
12:53 AM 48.0 °F - 30.0 °F 50% 30.17 in 10.0 mi NNE 3.5 mph - N/A   Clear
1:53 AM 46.0 °F 41.9 °F 30.0 °F 54% 30.17 in 10.0 mi NW 8.1 mph - N/A   Clear
3:53 AM 44.1 °F 40.1 °F 30.0 °F 58% 30.16 in 10.0 mi NNW 6.9 mph - N/A   Clear
4:53 AM 42.1 °F 37.7 °F 30.9 °F 65% 30.16 in 10.0 mi WNW 6.9 mph - N/A   Clear
5:53 AM 41.0 °F 36.4 °F 30.0 °F 65% 30.16 in 10.0 mi WNW 6.9 mph - N/A   Clear
6:53 AM 42.1 °F 37.7 °F 30.0 °F 62% 30.16 in 10.0 mi WNW 6.9 mph - N/A   Clear
7:53 AM 39.9 °F 37.8 °F 30.0 °F 68% 30.19 in 10.0 mi WNW 3.5 mph - N/A   Clear
8:53 AM 46.0 °F 44.8 °F 30.0 °F 54% 30.19 in 10.0 mi WNW 3.5 mph - N/A   Clear
9:53 AM 60.1 °F - 30.0 °F 32% 30.19 in 9.0 mi Calm Calm - N/A   Clear
10:53 AM 68.0 °F - 26.1 °F 21% 30.16 in 10.0 mi South 15.0 mph - N/A   Clear
11:53 AM 72.0 °F - 21.0 °F 15% 30.14 in 10.0 mi SSW 17.3 mph 21.9 mph N/A   Clear
12:53 PM 75.0 °F - 21.0 °F 13% 30.11 in 10.0 mi SSW 17.3 mph 21.9 mph N/A   Clear
1:53 PM 78.1 °F - 19.9 °F 11% 30.08 in 10.0 mi SSW 21.9 mph 26.5 mph N/A   Clear
2:53 PM 80.1 °F - 14.0 °F 8% 30.04 in 10.0 mi SSW 19.6 mph 27.6 mph N/A   Clear
3:53 PM 81.0 °F - 17.1 °F 9% 30.01 in 10.0 mi SW 21.9 mph 26.5 mph N/A   Clear
4:53 PM 81.0 °F - 19.0 °F 10% 29.99 in 10.0 mi SSW 17.3 mph 23.0 mph N/A   Clear
5:53 PM 80.1 °F - 17.1 °F 9% 29.97 in 10.0 mi SSW 18.4 mph 25.3 mph N/A   Clear
6:53 PM 75.9 °F - 16.0 °F 10% 29.98 in 10.0 mi SSW 11.5 mph - N/A   Clear
7:53 PM 61.0 °F - 24.1 °F 24% 30.02 in 10.0 mi SSW 8.1 mph - N/A   Clear
8:53 PM 62.1 °F - 21.9 °F 21% 30.01 in 10.0 mi SSW 11.5 mph - N/A   Clear
9:53 PM 61.0 °F - 23.0 °F 23% 29.98 in 10.0 mi SSW 10.4 mph - N/A   Clear
10:53 PM 52.0 °F - 23.0 °F 32% 30.00 in 10.0 mi South 9.2 mph - N/A   Clear
11:53 PM 46.9 °F - 24.1 °F 41% 29.99 in 10.0 mi South 9.2 mph - N/A   Clear